This demonstration page uses our WeatherBlox Daily Observations layout. Learn more.

Left ArrowRight Arrow

39.12711, -84.51439

Hourly Observations for October 15, 2018

Temp ( °F °C ) Dew Point ( °F °C ) Humidity (%) Winds ( mph kmh ) Pressure ( in mb ) Visibility ( mi km ) Precip ( " mm )
12:01 am 00:01 Cloudy with Mist and Fog 55 12.8 55 12.8 100 100 N N/A 30.00 1016 3 5 N/A
12:53 am 00:53 Cloudy with Mist and Fog 55 12.8 55 12.8 100 100 N N/A 29.99 1016 3 5 0.02 0.51
1:03 am 01:03 Cloudy with Light Rain 55 12.8 55 12.8 100 100 N N/A 30.00 1016 3 4 N/A
1:34 am 01:34 Cloudy with Mist and Fog 55 12.8 55 12.8 100 100 N N/A 29.97 1015 3 4 N/A
1:53 am 01:53 Cloudy with Mist and Fog 56 13.3 56 13.3 100 100 N N/A 29.98 1015 3 4 N/A
2:14 am 02:14 Cloudy with Mist and Fog 56 13.3 56 13.3 100 100 N N/A 29.97 1015 3 5 N/A
2:43 am 02:43 Cloudy with Mist and Fog 56 13.3 56 13.3 100 100 N N/A 30.00 1016 3 4 0.01 0.25
2:49 am 02:49 Cloudy with Mist and Fog 55 13 55 13 100 100 N N/A 29.97 1015 2 3 0.01 0.25
2:50 am 02:50 Cloudy with Mist and Fog 56 13.3 56 13.3 100 100 N N/A 29.98 1015 2 3 0.01 0.25
3:53 am 03:53 Cloudy with Mist and Fog 57 13.9 57 13.9 100 100 N N/A 29.97 1015 1 2 0.01 0.25
4:21 am 04:21 Cloudy with Mist and Fog 57 13.9 57 13.9 100 100 N N/A 29.97 1015 2 3 N/A
4:30 am 04:30 Cloudy with Mist and Fog 57 13.9 57 13.9 100 100 N N/A 29.97 1015 2 2 N/A
4:53 am 04:53 Cloudy with Mist and Fog 57 13.9 57 13.9 100 100 N N/A 29.97 1015 3 4 N/A
5:05 am 05:05 Cloudy with Mist and Fog 59 15 59 15 100 100 W 6 9 29.94 1014 5 8 N/A
5:29 am 05:29 Cloudy with Light Rain 59 15 59 15 100 100 WSW 8 13 29.97 1015 10 16 N/A
5:53 am 05:53 Cloudy with Light Rain 59 15 59 15 100 100 WSW 8 13 29.99 1016 7 11 0.02 0.51
6:10 am 06:10 Cloudy with Light Rain 59 15 59 15 100 100 SW 7 11 29.97 1015 10 16 N/A
6:53 am 06:53 Cloudy with Light Rain 59 15 59 15 100 100 S 8 13 29.98 1015 7 11 N/A
7:03 am 07:03 Cloudy with Light Rain 59 15 59 15 100 100 SSW 5 7 29.97 1015 7 11 N/A
7:35 am 07:35 Cloudy with Light Rain 59 15 59 15 100 100 WSW 6 9 29.97 1015 5 8 N/A
7:53 am 07:53 Cloudy with Light Rain 59 15 59 15 100 100 SSW 7 11 30.00 1016 5 8 N/A
8:36 am 08:36 Cloudy with Light Rain 60 15.6 59 15 96 96 W 12 19 30.00 1016 6 10 0.01 0.25
8:53 am 08:53 Cloudy with Light Rain 59 15 58 14.4 96 96 WSW 10 17 30.03 1017 6 10 0.01 0.25
9:53 am 09:53 Cloudy with Mist and Fog 59 15 57 13.9 93 93 W 10 17 30.05 1018 6 10 N/A
10:53 am 10:53 Cloudy with Light Rain 57 13.9 56 13.3 96 96 W 13 20 30.09 1019 4 6 0.01 0.25
11:53 am 11:53 Cloudy with Light Rain 56 13.3 55 12.8 97 97 W 9 15 30.11 1020 6 10 N/A
12:53 pm 12:53 Cloudy with Mist and Fog 56 13.3 54 12.2 93 93 NW 10 17 30.12 1020 6 10 N/A
1:53 pm 13:53 Cloudy 55 12.8 50 10 83 83 WNW 6 9 30.13 1020 10 16 N/A
2:53 pm 14:53 Cloudy 54 12.2 49 9.4 83 83 NW 9 15 30.14 1021 10 16 N/A
3:53 pm 15:53 Cloudy 54 12.2 48 8.9 80 80 NW 8 13 30.16 1021 10 16 N/A
4:53 pm 16:53 Cloudy 54 12.2 47 8.3 77 77 NW 6 9 30.16 1021 10 16 N/A
5:53 pm 17:53 Cloudy 53 11.7 47 8.3 80 80 NNW 10 17 30.18 1022 10 16 N/A
6:53 pm 18:53 Mostly Cloudy 50 10 45 7.2 83 83 NW 9 15 30.21 1023 10 16 N/A
7:53 pm 19:53 Partly Cloudy 49 9.4 43 6.1 80 80 NW 7 11 30.24 1024 10 16 N/A
8:53 pm 20:53 Partly Cloudy 47 8.3 41 5 80 80 WNW 7 11 30.28 1025 10 16 N/A
9:53 pm 21:53 Clear 45 7.2 39 3.9 80 80 NW 6 9 30.29 1026 10 16 N/A
10:53 pm 22:53 Clear 45 7.2 39 3.9 80 80 VRB 3 6 30.29 1026 10 16 N/A
11:53 pm 23:53 Clear 44 6.7 40 4.4 85 85 N N/A 30.30 1026 10 16 N/A

Powered by AerisWeather